Location: Barrio Las Umbrías
(40.4173°N, 4.8685°W)
Time: 23:33:15
(UTC+00:00)

Daily predictions for brighter satellites

Satellite Brightness Start Highest point End
(mag) Time Altitude Azimuth Time Altitude Azimuth Time Altitude Azimuth
Cosmos 1842 Rocket 4.1 19:34:45 10° NNW 19:39:02 62° W 19:43:17 10° S
Cosmos 1605 Rocket 4.0 19:34:14 10° N 19:40:23 70° E 19:46:26 10° SSE
Genesis I 3.8 19:37:01 10° SW 19:40:59 66° WNW 19:45:03 10° NNE
USA 307 4.2 19:38:47 10° WSW 19:42:44 42° NW 19:46:41 10° NE
OBJECT-B 0.2 19:40:57 10° SSE 19:43:37 75° ENE 19:46:14 10° N
Atlas Centaur 2 4.1 19:37:13 10° SSW 19:43:41 24° SSE 19:49:53 10° ESE
Cosmos 1125 Rocket 4.4 19:39:29 10° NNW 19:44:36 53° WSW 19:49:40 10° S
Cosmos 332 Rocket 4.3 19:39:46 10° NNW 19:44:37 66° WSW 19:49:24 10° S
Cosmos 1812 2.7 19:45:02 10° N 19:48:51 89° W 19:52:39 10° S
Cosmos 1943 3.2 19:44:31 10° NNW 19:50:12 81° ENE 19:55:51 10° SSE
H-2A R/B 3.7 19:48:07 10° ENE 19:50:31 15° E 19:52:52 10° SE
Meteor 2-6 Rocket 4.4 19:47:12 10° N 19:52:24 47° ENE 19:57:35 10° SSE
Resurs 01 Rocket 3.1 19:50:46 10° ESE 19:54:05 21° ENE 19:57:24 10° NNE
Cosmos 1782 3.4 19:50:21 10° NNW 19:54:14 60° W 19:58:08 10° S
SL-19 R/B 4.2 19:48:41 10° NNE 19:54:17 72° ESE 19:59:51 10° S
Cosmos 1727 Rocket 4.0 19:49:00 10° S 19:55:02 59° E 20:01:04 10° NNE
SJ-6B 2.8 19:52:17 10° SSE 19:56:19 71° ENE 20:00:18 10° N
H-2A R/B 3.1 19:55:57 10° SE 20:00:06 43° ENE 20:04:20 10° N
Cosmos 1844 4.1 19:55:47 10° S 20:01:08 41° ESE 20:06:28 10° NE
Cosmos 1184 Rocket 4.1 19:59:51 10° NNW 20:02:36 36° W 20:05:20 10° SSW
NOSS 2-2 (E) 3.4 19:59:36 10° S 20:02:43 35° ESE 20:05:48 10° NE
USA 281 3.3 19:58:16 10° SE 20:04:48 67° ENE 20:11:21 10° NNW
Cosmos 773 Rocket 4.1 20:00:21 10° SSW 20:05:28 78° WNW 20:10:38 10° NNE
Ariane Rocket 4.4 20:03:23 12° ESE 20:06:41 21° ENE 20:10:26 10° NNE
NOSS 2-2 (C) 3.7 20:05:19 10° S 20:08:23 29° ESE 20:11:20 10° NE
Cosmos 1400 Rocket 3.6 20:05:36 10° SSE 20:09:12 31° E 20:12:48 10° NNE
CSL-04 Rocket 3.7 20:04:33 10° SSE 20:09:58 87° WSW 20:15:21 10° NNW
CZ-4 R/B 3.6 20:08:26 10° SSW 20:11:36 24° W 20:14:47 10° NW
Cosmos 2100 Rocket 4.3 20:05:44 10° N 20:11:40 46° ENE 20:17:31 10° SSE
Okean-O 2.7 20:07:28 10° S 20:11:53 82° WSW 20:16:20 10° NNW
CZ-4C R/B 3.1 20:09:03 10° N 20:12:19 68° WNW 20:15:28 10° SSW
ATLAS 5 CENTAUR R/B 2.5 20:10:22 10° NW 20:16:01 84° WSW 20:22:34 11° SSE
Cosmos 1538 Rocket 4.2 20:11:59 10° S 20:16:55 49° ESE 20:21:55 10° NNE
Cosmos 1844 Rocket 2.6 20:13:05 10° SSW 20:18:36 69° ESE 20:24:09 10° NNE
USA 186 2.7 20:16:27 10° S 20:18:57 37° W 20:21:21 10° NNW
NOSS 3-1 (C) 3.8 20:17:41 10° SW 20:22:41 59° NW 20:28:34 10° NNE
Cosmos 1862 4.2 20:19:50 10° SSW 20:23:47 53° W 20:27:45 10° N
Okean O Rocket 4.4 20:24:41 10° SW 20:27:24 16° W 20:30:06 10° NW
ASTEX 1 3.5 20:23:23 10° NNE 20:28:09 51° E 20:32:51 10° S
Cosmos 292 Rocket 3.8 20:23:37 10° NNW 20:28:28 68° ENE 20:32:01 18° SSE
Cosmos 1340 4.3 20:25:52 10° NNW 20:29:15 34° W 20:32:38 10° SSW
Cosmos 1000 Rocket 4.4 20:24:13 10° S 20:30:21 70° E 20:36:35 10° NNE
Landsat 7 3.8 20:25:50 10° SSE 20:30:33 89° WSW 20:35:18 10° NNW
Resurs 1-3 4.0 20:32:32 10° S 20:36:52 63° W 20:41:14 10° NNW
USA 229 DEB 3.4 20:31:57 10° SSW 20:38:05 69° ESE 20:44:42 10° NE
USA 229 3.4 20:32:03 10° SSW 20:38:11 68° ESE 20:44:48 10° NE
Terra 3.8 20:39:01 12° ENE 20:39:58 13° ENE 20:41:58 10° NE
SPOT 5 4.5 20:39:11 18° E 20:40:42 20° ENE 20:44:23 10° NNE
MetOp-A 4.3 20:39:17 10° S 20:44:29 68° WSW 20:49:27 10° NNW
SeaSat 1 2.8 20:43:29 16° SSE 20:47:25 61° WSW 20:52:19 10° NNW
IRS-1A Rocket 4.2 20:45:47 21° SSE 20:49:33 72° ENE 20:55:04 10° N
Cosmos 2173 Rocket 3.9 20:44:42 10° N 20:50:57 90° E 20:56:11 15° S
NOSS 2-2 (D) 2.9 20:47:54 10° SW 20:51:16 78° NW 20:54:37 10° NNE
Tiangong -2.3 20:49:23 10° WSW 20:52:32 84° SSE 20:53:02 59° E
Cosmos 1151 Rocket 3.5 20:49:51 10° NNW 20:54:04 59° W 20:57:24 15° S
PSLV R/B 3.8 20:50:13 10° NNE 20:54:22 78° ESE 20:57:22 18° S
Cosmos 1666 4.1 20:58:44 23° ENE 20:58:44 23° ENE 21:00:50 10° NNE
Gblst 52 Del rocket 4.4 20:51:55 10° SW 20:57:53 71° SE 21:04:48 10° ENE
Cosmos 1346 Rocket 3.0 20:57:31 10° N 21:01:26 50° ENE 21:01:55 47° ESE
Cosmos 1515 3.6 21:00:42 10° N 21:04:28 84° W 21:05:28 47° S
Cosmos 1408 Rocket 3.5 21:03:14 42° SSE 21:04:28 60° E 21:08:52 10° NNE
NOSS 3-1 (A) 3.9 21:00:24 10° SW 21:05:23 54° NW 21:11:16 10° NNE
Cosmos 1441 Rocket 4.1 21:02:06 10° N 21:05:06 32° ENE 21:05:06 32° ENE
DELTA 2 R/B (1) 3.6 21:02:44 10° WSW 21:08:11 56° SSE 21:10:08 37° ESE
Okean 3 Rocket 4.0 21:04:35 10° SSW 21:08:59 63° W 21:13:22 10° N
Cosmos 1515 Rocket 3.6 21:06:08 10° N 21:10:29 60° E 21:11:10 53° ESE
Cosmos 1315 Rocket 3.4 21:14:31 40° ENE 21:14:31 40° ENE 21:17:38 10° NNE
Cosmos 1500 2.9 21:15:30 78° SSE 21:15:44 86° E 21:19:28 10° N
Cosmos 1459 Rocket 4.5 21:09:35 10° NNW 21:15:45 60° W 21:21:05 15° SSW
Cosmos 1833 Rocket 3.9 21:11:35 10° N 21:16:19 27° NE 21:17:32 25° ENE
Cosmos 2016 Rocket 4.0 21:12:49 10° N 21:19:11 86° W 21:22:42 29° S
H-2A R/B 3.1 21:22:36 10° N 21:26:42 45° WNW 21:30:20 12° SW
SL-23 DEB 4.5 21:22:40 10° WNW 21:26:37 40° SW 21:26:37 40° SW
CZ-4B R/B 2.0 21:24:08 10° N 21:26:45 50° NW 21:26:45 50° NW
SPOT 3 Rocket 3.4 21:26:18 53° SSE 21:27:32 77° ENE 21:32:44 10° N
Cosmos 2056 Rocket 4.4 21:23:45 10° N 21:28:21 32° ENE 21:28:34 32° ENE
Cosmos 1743 Rocket 3.8 21:29:27 53° ENE 21:29:27 53° ENE 21:33:10 10° NNE
Cosmos 2061 Rocket 4.0 21:23:07 10° N 21:29:23 84° W 21:32:07 36° S
Resurs 01 Rocket 3.0 21:28:04 21° SSW 21:30:20 35° W 21:34:23 10° NNW
Atlas Centaur 2 3.4 21:25:02 10° SW 21:32:34 37° S 21:33:06 37° SSE
Okean 1 3.7 21:28:45 10° N 21:32:06 54° NE 21:32:06 54° NE
Meteor 1-25 Rocket 4.4 21:32:40 23° SSW 21:36:15 71° W 21:41:49 10° N
Cosmos 1725 Rocket 4.2 21:30:53 10° NNW 21:37:08 68° W 21:40:11 32° SSW
Cosmos 2082 Rocket 3.9 21:37:14 10° N 21:41:00 18° NE 21:41:48 18° ENE
Cosmos 44 3.3 21:37:33 10° NNW 21:41:37 60° NE 21:41:37 60° NE
Meteor 1-19 Rocket 4.1 21:39:00 10° NNW 21:44:35 82° W 21:45:37 60° S
Ariane Rocket 3.8 21:43:35 33° SSW 21:45:18 45° W 21:50:10 10° NNW
ARIANE 5 R/B 3.9 21:51:22 31° NE 21:51:22 31° NE 21:54:14 10° N
CZ-2C R/B 4.4 21:48:05 10° NNE 21:51:17 43° NE 21:51:17 43° NE
Cosmos 2278 Rocket 2.8 21:55:10 42° ENE 21:55:10 42° ENE 21:59:14 10° NNE
Cosmos 1500 Rocket 3.9 21:54:27 62° WNW 21:54:27 62° WNW 21:58:41 10° N
Cosmos 1447 Rocket 4.3 21:53:08 56° S 21:54:33 89° E 22:00:46 10° N
Cosmos 1680 Rocket 3.8 21:56:52 39° SW 21:58:39 62° WNW 22:03:50 10° NNE
Spot 2 Rocket 3.8 22:12:33 59° W 22:12:33 59° W 22:17:31 10° NNW
Cosmos 2228 Rocket 3.9 22:08:14 10° N 22:11:37 49° N 22:11:37 49° N
ERS-1 Rocket 3.2 22:14:23 63° W 22:14:23 63° W 22:19:04 10° NNW
Terra 2.3 22:17:54 58° NW 22:17:54 58° NW 22:21:51 10° NNW
SPOT 5 3.6 22:18:24 49° W 22:18:24 49° W 22:23:18 10° NNW
Helios 1A Rocket 4.4 22:20:54 36° NNW 22:20:54 36° NNW 22:23:26 10° NNW
Sich 1 4.3 22:24:58 38° NNW 22:24:58 38° NNW 22:27:56 10° N
Cosmos 1420 Rocket 4.4 22:20:03 10° NNW 22:24:21 61° NNW 22:24:21 61° NNW
USA 234 4.0 22:27:10 10° NE 22:31:02 37° ENE 22:31:02 37° ENE
Cosmos 1891 Rocket 4.5 22:29:46 10° N 22:36:10 84° WNW 22:36:10 84° WNW
Cosmos 2346 Rocket 4.5 22:40:10 78° NW 22:40:10 78° NW 22:46:12 10° N
Cosmos 2098 Rocket 4.2 22:41:24 66° WSW 22:41:59 69° W 22:49:12 10° N
ATLAS 3B CENTAUR R/B 4.4 22:36:51 10° WSW 22:47:08 46° S 22:47:08 46° S
ADEOS Rocket 3.9 22:49:59 43° ENE 22:49:59 43° ENE 22:56:00 10° N
Cosmos 1833 Rocket 3.7 22:55:04 10° NW 22:59:13 39° WNW 22:59:13 39° WNW
COSMOS 2406 4.0 22:59:17 10° NNW 23:03:23 49° NW 23:03:23 49° NW
Cosmos 2082 Rocket 3.3 23:20:04 10° NNW 23:23:38 40° NW 23:23:38 40° NW
ATLAS CENTAUR R/B 4.2 23:23:06 10° N 23:25:07 15° NNE 23:25:07 15° NNE
Cosmos 2278 Rocket 4.1 23:36:57 22° WNW 23:38:08 23° NW 23:42:38 10° N
CENTAUR R/B 3.2 23:30:58 10° NNW 23:39:20 75° NE 23:39:36 75° ENE
NOSS 3-2 (A) 4.1 23:32:54 10° NNW 23:40:19 78° NNE 23:40:19 78° NNE
Cosmos 1943 Rocket 3.5 23:49:16 36° N 23:49:16 36° N 23:52:41 10° NNE
